Wind_Speed
60 61 61 62 62 63 62 62 61 60 57 55 53 51 47 45 43 42 40 38 36 34 34 32 30 28 27 27 26 25 25 25 24 24 24 24 25 25 25 24 24 25 25
63 64 64 65 66 66 66 66 65 64 62 61 58 55 52 49 47 44 41 39 37 35 34 32 30 29 28 27 26 25 25 24 24 24 24 24 25 25 25 24 24 23 24
67 67 68 69 69 70 70 69 69 68 66 64 61 58 55 53 50 47 44 41 39 36 35 33 31 29 28 27 27 25 24 24 23 23 23 24 24 24 25 24 24 23 23
72 72 73 73 74 73 73 73 73 72 70 69 66 61 58 56 53 49 47 44 42 39 37 34 32 30 28 27 26 24 23 23 22 21 21 22 23 23 23 23 24 24 23
72 72 73 75 76 77 77 77 77 77 75 73 70 67 63 59 56 52 49 46 44 41 39 36 33 31 29 27 27 25 23 22 22 21 21 22 22 22 22 21 21 21 21
59 58 59 60 63 66 69 73 75 76 78 77 75 73 69 65 59 54 49 47 45 41 39 36 34 32 29 28 27 25 23 22 21 21 21 21 21 21 21 21 21 21 22
39 37 37 38 39 42 45 49 54 59 65 70 73 74 72 69 64 58 53 49 45 42 38 37 35 32 30 28 27 26 24 23 22 21 21 21 21 20 21 21 20 20 20
29 30 31 31 31 32 33 35 36 39 43 49 55 62 65 66 63 60 56 52 48 44 41 39 36 33 31 29 28 27 26 24 23 21 20 21 21 21 22 21 20 19 18
35 35 35 34 33 32 32 31 32 32 33 35 38 43 49 53 55 56 56 53 50 47 43 40 37 34 32 30 28 27 25 24 22 22 21 20 21 20 19 19 18 16 15
39 39 38 37 35 33 32 31 30 29 29 30 31 33 36 41 45 48 49 50 49 47 44 42 39 35 33 30 29 26 25 23 22 21 22 21 21 20 19 18 16 14 14
43 42 40 38 36 35 33 31 29 28 27 26 26 28 30 34 39 43 45 45 45 45 43 42 38 35 33 30 29 27 24 23 22 21 21 20 20 18 18 16 15 14 14
45 43 41 39 37 35 33 31 29 26 25 24 23 24 26 30 34 39 42 41 42 43 41 39 36 34 31 30 28 26 24 22 22 20 20 19 18 17 17 16 15 14 13
46 44 41 39 37 35 33 30 29 26 24 22 21 21 22 25 31 36 40 39 40 40 38 36 34 32 30 28 27 25 24 23 21 19 19 18 18 17 16 15 14 14 14
45 42 40 38 36 34 32 30 28 26 24 22 21 20 19 21 26 33 36 37 38 38 35 33 32 30 28 27 25 23 22 22 20 19 18 18 18 17 15 15 15 14 13
42 40 39 36 34 32 30 29 27 25 23 21 20 19 18 20 24 31 36 36 36 36 34 31 29 28 27 25 24 23 22 21 20 19 18 18 18 17 17 16 15 14 13
38 36 35 34 31 29 28 27 26 25 23 21 20 19 17 18 20 29 36 35 35 35 34 32 30 28 26 25 25 24 23 21 20 19 19 18 17 17 17 16 14 13 13
33 30 29 28 27 26 26 25 25 24 22 21 19 18 18 18 19 26 33 34 35 35 34 32 30 28 27 26 25 25 23 22 21 20 19 18 17 17 16 15 14 14 13
26 24 21 21 21 21 22 23 24 23 22 21 20 19 19 19 21 26 31 34 35 36 34 31 29 28 27 26 25 24 23 22 21 20 19 18 17 16 15 14 14 13 12
20 18 16 15 15 16 17 20 22 21 21 21 20 19 20 21 23 26 30 33 35 35 33 32 30 28 27 26 25 24 23 22 21 20 18 17 16 15 14 14 13 13 12
14 11 10 9 10 11 13 16 18 19 20 20 21 20 21 23 25 27 29 32 33 34 33 31 30 28 27 26 24 24 23 22 20 19 17 16 15 14 14 13 13 13 13
8 4 2 5 7 9 12 15 16 18 20 20 21 22 23 25 27 28 29 31 32 33 32 31 30 28 27 26 25 23 22 20 19 18 16 15 14 13 13 13 13 14 15
9 6 6 8 9 12 14 15 16 18 20 22 23 23 25 28 29 30 29 30 32 32 31 31 29 28 26 25 23 21 20 19 18 16 16 15 14 13 13 14 14 15 17
14 13 12 12 12 14 16 16 18 20 22 24 24 26 29 31 30 30 31 31 32 31 30 29 28 27 25 23 22 20 19 18 17 16 15 14 14 14 14 15 16 17 18
18 17 16 15 15 17 19 20 22 24 25 26 28 30 31 31 31 32 32 31 31 29 28 27 26 24 23 21 20 18 17 16 15 15 15 14 14 15 15 16 17 18 20
20 20 20 20 20 22 23 24 25 26 27 29 31 32 32 32 33 33 32 31 29 28 26 25 23 22 21 19 18 16 15 14 14 14 15 15 15 15 16 17 18 20 21
25 24 24 25 26 26 27 27 28 29 30 32 32 32 32 32 32 32 30 29 27 26 24 22 21 19 18 16 15 14 14 14 14 14 15 15 15 16 17 18 20 21 22
Wind_Direction
277 276 275 274 273 273 272 272 271 271 270 269 267 266 266 265 265 266 267 269 270 273 278 283 287 292 295 296 293 288 284 279 272 266 262 259 258 258 258 259 258 256 256
277 275 274 273 272 271 270 270 269 269 268 267 267 265 265 264 263 263 264 265 266 269 273 278 282 287 291 292 292 288 284 280 272 265 260 258 258 257 257 258 256 255 256
278 277 275 273 272 270 270 269 268 268 267 266 265 264 263 262 262 261 259 260 262 265 269 273 277 282 287 288 289 286 282 279 274 265 258 256 256 256 256 255 254 255 255
278 277 275 273 272 270 269 268 267 267 266 265 263 262 262 261 259 259 258 257 257 261 265 268 272 277 282 284 285 283 279 277 273 266 259 256 256 255 254 253 253 252 251
280 278 276 274 272 271 269 268 266 265 265 264 262 261 260 260 259 257 256 255 255 258 259 263 267 272 277 279 281 280 276 273 270 265 260 256 255 252 251 251 251 251 253
286 284 282 279 276 274 271 269 267 265 264 262 261 260 259 258 257 255 255 255 254 256 255 257 262 267 272 275 276 276 274 270 266 263 258 253 251 251 252 253 252 255 255
294 293 292 291 288 284 279 275 272 269 265 262 260 258 257 256 255 253 251 252 252 252 252 253 257 262 267 270 270 270 270 266 262 261 256 251 248 251 252 253 249 252 254
299 299 299 299 298 296 293 288 282 276 271 265 260 257 255 253 251 250 249 247 248 247 248 250 254 258 262 264 265 266 266 264 260 255 254 251 250 250 245 248 249 250 250
297 297 297 296 296 296 295 292 287 283 277 270 263 256 252 247 244 243 244 242 242 242 243 246 249 253 257 259 261 261 262 258 253 253 250 250 246 245 246 249 246 240 235
296 294 294 293 293 292 292 291 287 284 281 274 267 258 250 242 236 233 234 235 236 237 239 242 245 248 251 255 256 257 256 251 250 251 244 245 246 246 242 240 233 228 225
295 293 292 290 288 287 287 286 285 282 279 276 268 259 249 238 229 224 224 225 227 230 234 237 240 244 247 250 251 250 249 247 246 244 241 240 236 233 231 224 216 211 209
293 291 289 287 285 283 282 281 279 278 275 274 270 261 250 238 226 218 214 216 220 223 226 229 233 237 241 243 242 241 242 241 239 238 235 232 225 220 215 208 202 200 200
291 288 286 284 282 280 277 275 273 272 270 268 267 261 249 236 222 212 209 210 212 215 218 222 225 229 233 235 235 235 235 233 230 229 224 219 211 206 203 200 196 193 192
289 285 282 280 277 274 271 268 267 265 263 261 259 256 248 232 220 208 202 201 202 207 211 215 219 223 225 225 224 224 223 220 217 214 209 207 204 201 199 192 185 185 188
289 284 280 277 273 270 265 261 260 257 254 253 250 248 244 232 218 207 197 194 195 199 202 207 211 214 214 213 213 212 208 205 203 198 195 196 194 189 184 180 181 185 189
290 284 279 274 269 264 259 255 252 250 246 244 242 240 237 227 213 199 194 188 188 193 196 200 203 205 206 206 203 201 197 194 189 186 186 186 184 181 180 182 187 191 196
293 286 278 270 263 257 251 246 243 240 238 235 233 231 227 221 208 197 191 183 183 188 192 195 197 197 198 196 193 189 185 182 181 180 181 182 181 182 185 189 194 199 204
294 287 277 265 257 250 244 237 231 230 228 225 223 219 216 213 203 194 189 183 183 185 188 189 189 189 187 185 184 181 179 178 178 179 180 182 183 186 191 196 201 207 215
297 286 274 261 250 241 235 226 221 218 215 214 211 209 206 199 190 188 184 181 180 181 184 185 185 183 182 180 179 177 176 176 176 178 181 183 186 191 197 203 211 219 229
310 293 269 249 234 223 212 207 204 202 200 199 197 194 191 186 181 179 180 178 177 179 181 180 178 176 174 173 173 174 174 175 177 180 183 186 191 197 205 213 223 233 242
345 335 247 195 190 183 181 182 184 185 186 185 183 183 180 177 174 174 177 175 172 173 173 173 171 170 169 170 171 173 175 177 180 184 188 192 198 207 216 225 235 245 255
44 70 103 131 144 149 155 158 163 169 171 171 170 169 168 167 167 170 170 167 167 166 167 167 167 167 168 169 171 174 177 180 183 188 194 201 209 218 228 238 247 256 264
63 80 96 111 123 132 141 146 151 154 155 156 158 159 160 162 163 164 162 162 163 163 164 164 166 167 169 171 173 176 180 184 189 195 202 210 219 229 238 248 256 264 269
70 80 92 103 114 125 132 136 140 142 144 146 147 150 153 156 157 157 157 158 160 161 162 163 165 168 171 174 177 181 186 191 198 205 213 221 229 238 247 256 263 269 274
73 80 87 95 106 116 123 128 134 137 138 140 142 145 148 150 151 152 153 156 158 159 161 163 166 170 174 178 182 187 193 201 208 216 224 231 238 246 253 260 267 272 277
73 80 88 96 104 112 118 122 126 129 132 135 139 141 144 146 148 150 151 154 156 158 161 164 167 172 178 183 188 193 202 212 220 226 233 240 247 254 260 266 271 275 278
Height
5749 5747 5744 5742 5741 5740 5740 5740 5740 5741 5742 5744 5745 5746 5747 5749 5749 5750 5750 5750 5750 5750 5749 5748 5746 5744 5742 5740 5739 5738 5737 5737 5737 5739 5741 5743 5745 5747 5749 5751 5753 5755 5757
5731 5728 5726 5724 5722 5721 5721 5721 5721 5722 5724 5726 5728 5730 5733 5735 5736 5738 5739 5739 5740 5741 5740 5740 5738 5737 5735 5734 5732 5731 5730 5730 5730 5731 5733 5735 5737 5739 5741 5744 5746 5748 5750
5710 5707 5705 5703 5701 5701 5700 5700 5701 5702 5704 5707 5709 5713 5716 5719 5722 5724 5726 5728 5729 5730 5731 5731 5730 5729 5728 5726 5725 5724 5724 5723 5724 5725 5726 5728 5730 5732 5734 5736 5739 5741 5743
5688 5685 5682 5680 5678 5678 5678 5678 5679 5681 5684 5686 5690 5694 5698 5702 5706 5709 5712 5715 5717 5719 5720 5721 5721 5721 5720 5719 5718 5718 5718 5718 5718 5719 5720 5722 5724 5725 5727 5729 5732 5734 5736
5662 5659 5656 5654 5653 5652 5653 5653 5655 5658 5660 5664 5668 5673 5678 5684 5689 5693 5697 5701 5704 5707 5709 5711 5712 5712 5711 5711 5711 5711 5711 5711 5712 5713 5715 5716 5718 5719 5721 5723 5726 5728 5730
5637 5634 5631 5629 5627 5626 5626 5627 5629 5631 5634 5638 5644 5650 5656 5663 5670 5676 5681 5686 5690 5694 5697 5700 5702 5703 5703 5703 5703 5704 5705 5705 5706 5707 5709 5711 5712 5714 5716 5718 5721 5723 5725
5619 5617 5614 5611 5609 5607 5605 5605 5605 5605 5607 5612 5617 5624 5632 5641 5649 5658 5665 5671 5676 5681 5686 5689 5692 5694 5695 5695 5696 5697 5698 5699 5700 5702 5703 5705 5706 5709 5711 5713 5715 5717 5719
5609 5607 5604 5601 5598 5596 5593 5591 5589 5587 5588 5590 5594 5599 5608 5617 5627 5637 5646 5655 5662 5668 5673 5678 5681 5684 5686 5687 5688 5690 5691 5692 5694 5695 5697 5699 5701 5703 5705 5708 5710 5712 5714
5600 5597 5594 5591 5589 5586 5583 5580 5577 5576 5575 5575 5577 5581 5587 5595 5605 5616 5627 5637 5646 5653 5660 5666 5670 5674 5676 5679 5680 5682 5684 5686 5687 5689 5691 5694 5696 5698 5700 5703 5705 5707 5710
5589 5585 5583 5580 5578 5575 5573 5570 5568 5566 5565 5565 5565 5568 5572 5578 5587 5598 5608 5619 5630 5639 5646 5653 5659 5663 5667 5670 5672 5675 5677 5679 5682 5684 5686 5689 5691 5693 5696 5699 5701 5704 5706
5576 5572 5570 5568 5566 5564 5562 5561 5559 5557 5557 5556 5556 5558 5560 5565 5573 5582 5593 5604 5614 5624 5633 5641 5648 5653 5657 5661 5664 5667 5670 5673 5676 5678 5681 5683 5686 5689 5691 5694 5697 5700 5703
5561 5558 5556 5554 5553 5552 5551 5550 5549 5549 5548 5548 5548 5550 5552 5555 5562 5570 5581 5592 5602 5612 5621 5630 5637 5643 5648 5653 5657 5660 5663 5667 5670 5673 5676 5679 5682 5685 5687 5690 5693 5697 5700
5546 5543 5542 5540 5540 5539 5540 5540 5540 5540 5540 5541 5542 5543 5545 5548 5553 5560 5570 5581 5591 5601 5611 5620 5628 5634 5640 5645 5649 5653 5658 5661 5665 5669 5672 5675 5678 5681 5684 5688 5691 5695 5698
5529 5527 5526 5526 5526 5527 5527 5529 5530 5531 5533 5534 5536 5537 5539 5542 5547 5553 5563 5573 5583 5593 5603 5612 5619 5626 5633 5638 5643 5648 5652 5657 5661 5665 5669 5672 5675 5679 5682 5686 5690 5693 5696
5513 5511 5510 5511 5512 5513 5515 5517 5520 5522 5525 5527 5530 5532 5535 5538 5542 5548 5557 5566 5576 5586 5597 5606 5613 5620 5627 5633 5638 5643 5648 5652 5657 5661 5665 5669 5673 5677 5680 5684 5688 5692 5695
5497 5495 5495 5496 5498 5500 5503 5507 5510 5514 5517 5521 5524 5527 5531 5534 5538 5544 5552 5562 5571 5581 5591 5600 5608 5615 5622 5628 5634 5639 5644 5649 5654 5659 5664 5668 5671 5675 5679 5683 5687 5690 5693
5482 5481 5481 5483 5485 5489 5492 5497 5501 5506 5510 5515 5519 5523 5527 5531 5536 5542 5549 5559 5569 5578 5587 5596 5604 5611 5618 5625 5631 5636 5641 5647 5652 5657 5662 5666 5670 5674 5678 5682 5685 5688 5691
5471 5470 5470 5472 5475 5479 5483 5488 5493 5498 5504 5509 5514 5519 5524 5529 5534 5540 5549 5557 5567 5575 5585 5593 5601 5609 5616 5622 5629 5634 5640 5646 5651 5656 5661 5665 5669 5673 5677 5680 5683 5686 5689
5462 5461 5462 5464 5468 5471 5476 5481 5487 5493 5499 5505 5511 5516 5522 5528 5534 5541 5549 5558 5567 5576 5584 5592 5600 5608 5614 5621 5628 5634 5639 5645 5650 5655 5660 5664 5668 5671 5675 5678 5681 5683 5686
5456 5456 5457 5460 5463 5467 5471 5476 5483 5489 5495 5502 5508 5514 5521 5527 5535 5542 5550 5559 5567 5576 5584 5592 5600 5607 5614 5621 5627 5633 5639 5644 5650 5654 5658 5662 5666 5670 5673 5675 5678 5680 5682
5454 5455 5456 5459 5462 5466 5470 5476 5481 5488 5494 5500 5507 5514 5521 5528 5536 5545 5553 5561 5569 5577 5585 5593 5601 5608 5615 5621 5627 5633 5639 5644 5649 5653 5657 5661 5664 5667 5670 5672 5675 5676 5678
5457 5457 5459 5461 5464 5468 5473 5478 5483 5488 5494 5501 5508 5515 5522 5531 5539 5547 5556 5564 5572 5580 5588 5595 5603 5609 5616 5622 5628 5633 5639 5643 5648 5652 5655 5659 5662 5664 5667 5669 5671 5672 5673
5464 5464 5465 5467 5470 5473 5477 5482 5487 5492 5498 5505 5512 5519 5526 5535 5543 5552 5560 5568 5576 5583 5591 5598 5605 5611 5617 5623 5628 5634 5638 5643 5646 5650 5653 5656 5659 5661 5663 5665 5666 5667 5667
5474 5473 5474 5475 5477 5480 5484 5488 5493 5498 5504 5510 5517 5524 5532 5541 5549 5556 5565 5573 5580 5587 5594 5601 5607 5613 5619 5624 5629 5634 5638 5642 5645 5648 5651 5654 5656 5658 5659 5660 5661 5661 5661
5484 5484 5484 5484 5486 5489 5492 5496 5501 5506 5512 5518 5525 5532 5540 5547 5555 5562 5570 5578 5585 5592 5598 5604 5610 5615 5620 5625 5629 5634 5637 5641 5643 5646 5648 5650 5652 5653 5654 5655 5655 5655 5655
5496 5495 5495 5496 5497 5499 5502 5506 5511 5516 5521 5527 5534 5541 5548 5555 5562 5569 5576 5583 5590 5596 5602 5607 5612 5617 5621 5626 5629 5633 5636 5639 5641 5643 5645 5646 5648 5649 5649 5650 5650 5649 5649